Location: Bullenkuhlen
(53.7689°N, 9.7495°E)
Time: 03:59:28
(UTC+00:00)

Nadezhda 1 Rocket - Pass Details

Date: 09 April 2020
Orbit: 941 x 1006 km, 83.0° (Epoch: 06 June)

Event Time Altitude Azimuth Distance (km) Brightness Sun altitude
Rises 19:18:22 0° 190° (S) 3,721 6.9 -9.9°
Reaches altitude 10° 19:20:54 10° 191° (S) 2,772 6.2 -10.2°
Maximum altitude 19:27:18 85° 280° (W) 1,009 4.2 -11.0°
Drops below altitude 10° 19:33:40 10° 10° (N) 2,757 6.7 -11.8°
Sets 19:36:11 0° 11° (NNE) 3,700 7.3 -12.2°
